Regional Weather Roundup
Issued by NWS

Home | Current Version | Previous Version | Graphics & Text | Print | Product List | Glossary On
Versions: 1 2 3 4 5 6 7 8 9 10 11 12 13 14 15 16 17 18 19 20 21 22 23 24 25 26 27 28 29 30 31 32 33 34 35 36 37 38 39 40 41 42 43 44 45 46 47 48 49 50
000
ASUS43 KLSX 241957
RWRMO

WEATHER SUMMARY FOR MISSOURI
NATIONAL WEATHER SERVICE SPRINGFIELD MO
300 PM CDT TUE MAY 24 2016

NOTE: "FAIR" INDICATES FEW OR NO CLOUDS BELOW 12,000 FEET WITH NO
       SIGNIFICANT WEATHER AND/OR OBSTRUCTIONS TO VISIBILITY.
       CURRENT SKY AND/OR WEATHER CONDITIONS ARE NOT AVAILABLE FOR
       CHILLICOTHE AND FARMINGTON.

MOZ001>031-035>038-043-044-053-054-242100-
...NORTHERN AND WESTERN MISSOURI...

CITY           SKY/WX    TMP DP  RH WIND       PRES   REMARKS
KANSAS CTY INT PTSUNNY   76  63  64 SE13      29.90R
LEE`S SUMMIT   CLOUDY    75  66  73 S20G26    29.90F
ST JOSEPH      MOSUNNY   78  64  61 S9        29.90R
CHILLICOTHE      N/A     76  64  66 SE9G25    29.93R

$$
MOZ066>068-077>081-088>096-101>105-242100-
...SOUTHWEST MISSOURI...

CITY           SKY/WX    TMP DP  RH WIND       PRES   REMARKS
SPRINGFIELD    CLOUDY    66  61  84 E8        29.97F
JOPLIN         CLOUDY    71  67  87 SE7       29.96F
BRANSON        LGT RAIN  64  63  94 MISG      30.06R FOG

$$
MOZ032>034-039>042-045>050-055>058-069>072-242100-
...CENTRAL MISSOURI...

CITY           SKY/WX    TMP DP  RH WIND       PRES   REMARKS
COLUMBIA       NOT AVBL
JEFFERSON CITY LGT RAIN  67  64  90 SE8       30.00F
ROLLA          TSTM      65  64  97 S10       30.06R FOG
SEDALIA        CLOUDY    69  65  86 E5        29.98F
WARRENSBURG    CLOUDY    70  63  78 SE13      29.93F

$$
MOZ051-052-059>065-242100-
...EAST CENTRAL MISSOURI...

CITY           SKY/WX    TMP DP  RH WIND       PRES   REMARKS
ST LOUIS INTL  CLOUDY    82  64  54 SW14      29.98F

$$
MOZ072>076-082>087-097>100-106>115-242100-
...SOUTH CENTRAL AND SOUTHEAST MISSOURI...

CITY           SKY/WX    TMP DP  RH WIND       PRES   REMARKS
CAPE GIRARDEAU MOSUNNY   81  64  56 SW14      30.05R
POPLAR BLUFF   TSTM      68  66  93 W3        30.07R FOG
WEST PLAINS    TSTM      65  62  90 NE9G22    30.08R VSB 1/2

$$



USA.gov is the U.S. government's official web portal to all federal, state and local government web resources and services.